| time (UTC) | temp F | wind direction | speed knots | gust knots | rain 1hr in | rain 24hr in | rain mn in | humidity % | barometer mb |
| 20260903211803 | 80 | 199 | 9.6 | 21.7 | 0.00 | 0.00 | 0.00 | 21 | |
| 20260903210903 | 80 | 199 | 10.4 | 18.2 | 0.00 | 0.00 | 0.00 | 20 | |
| 20260903210003 | 80 | 207 | 9.6 | 20.9 | 0.00 | 0.00 | 0.00 | 20 | |
| 20260903205403 | 80 | 192 | 8.7 | 20.9 | 0.00 | 0.00 | 0.00 | 22 | |
| 20260903204503 | 81 | 193 | 9.6 | 18.2 | 0.00 | 0.00 | 0.00 | 22 | |
| 20260903203603 | 81 | 183 | 8.7 | 14.8 | 0.00 | 0.00 | 0.00 | 20 | |
| 20260903202703 | 81 | 177 | 8.7 | 15.6 | 0.00 | 0.00 | 0.00 | 20 | |
| 20260903201803 | 80 | 167 | 8.7 | 20.9 | 0.00 | 0.00 | 0.00 | 22 | |
| 20260903200903 | 80 | 168 | 9.6 | 24.3 | 0.00 | 0.00 | 0.00 | 22 | |
| 20260903200003 | 80 | 155 | 8.7 | 16.5 | 0.00 | 0.00 | 0.00 | 21 | |
| 20260903195614 | 80 | 160 | 7.8 | 16.5 | 0.00 | 0.00 | 0.00 | 21 | |
| 20260903194503 | 79 | 145 | 8.7 | 16.5 | 0.00 | 0.00 | 0.00 | 22 | |
| 20260903193812 | 79 | 152 | 9.6 | 19.1 | 0.00 | 0.00 | 0.00 | 22 | |
| 20260903192703 | 79 | 167 | 9.6 | 20.9 | 0.00 | 0.00 | 0.00 | 22 | |
| 20260903191803 | 78 | 181 | 9.6 | 25.2 | 0.00 | 0.00 | 0.00 | 24 | |
| 20260903190903 | 78 | 155 | 9.6 | 21.7 | 0.00 | 0.00 | 0.00 | 23 | |
| 20260903190003 | 78 | 159 | 10.4 | 20.0 | 0.00 | 0.00 | 0.00 | 23 | |
| 20260903185403 | 78 | 155 | 9.6 | 20.0 | 0.00 | 0.00 | 0.00 | 22 | |
| 20260903184503 | 77 | 171 | 9.6 | 20.0 | 0.00 | 0.00 | 0.00 | 24 | |
| 20260903183603 | 77 | 171 | 9.6 | 19.1 | 0.00 | 0.00 | 0.00 | 24 | |
| 20260903182703 | 76 | 173 | 10.4 | 19.1 | 0.00 | 0.00 | 0.00 | 23 | |
| 20260903181803 | 76 | 182 | 10.4 | 20.9 | 0.00 | 0.00 | 0.00 | 24 | |
| 20260903180903 | 76 | 177 | 8.7 | 18.2 | 0.00 | 0.00 | 0.00 | 26 | |
| 20260903180003 | 76 | 177 | 9.6 | 20.0 | 0.00 | 0.00 | 0.00 | 24 | |
| 20260903175403 | 75 | 178 | 10.4 | 20.0 | 0.00 | 0.00 | 0.00 | 23 | |
| 20260903174503 | 75 | 178 | 9.6 | 20.0 | 0.00 | 0.00 | 0.00 | 24 | |
| 20260903173603 | 75 | 176 | 8.7 | 20.0 | 0.00 | 0.00 | 0.00 | 25 | |
| 20260903172703 | 75 | 195 | 8.7 | 17.4 | 0.00 | 0.00 | 0.00 | 26 | |
| 20260903171803 | 75 | 180 | 7.8 | 18.2 | 0.00 | 0.00 | 0.00 | 25 | |
| 20260903171114 | 74 | 182 | 8.7 | 18.2 | 0.00 | 0.00 | 0.00 | 25 | |
| 20260903170213 | 74 | 177 | 9.6 | 21.7 | 0.00 | 0.00 | 0.00 | 24 | |
| 20260903165403 | 74 | 172 | 7.8 | 15.6 | 0.00 | 0.00 | 0.00 | 24 | |
| 20260903164503 | 74 | 170 | 7.8 | 16.5 | 0.00 | 0.00 | 0.00 | 27 | |
| 20260903163813 | 73 | 165 | 7.8 | 16.5 | 0.00 | 0.00 | 0.00 | 26 | |
| 20260903162704 | 73 | 171 | 8.7 | 17.4 | 0.00 | 0.00 | 0.00 | 29 | |
| 20260903161803 | 72 | 170 | 8.7 | 17.4 | 0.00 | 0.00 | 0.00 | 28 | |
| 20260903160903 | 72 | 178 | 7.0 | 15.6 | 0.00 | 0.00 | 0.00 | 29 | |
| 20260903160003 | 71 | 198 | 6.1 | 12.2 | 0.00 | 0.00 | 0.00 | 30 | |
| 20260903155403 | 70 | 188 | 7.0 | 18.2 | 0.00 | 0.00 | 0.00 | 29 | |
| 20260903154503 | 70 | 185 | 6.1 | 13.9 | 0.00 | 0.00 | 0.00 | 28 | |
| 20260903153603 | 69 | 185 | 6.1 | 13.0 | 0.00 | 0.00 | 0.00 | 28 | |
| 20260903152703 | 69 | 182 | 5.2 | 13.9 | 0.00 | 0.00 | 0.00 | 27 | |
| 20260903151803 | 68 | 190 | 4.3 | 9.6 | 0.00 | 0.00 | 0.00 | 28 | |
| 20260903150903 | 67 | 205 | 3.5 | 7.8 | 0.00 | 0.00 | 0.00 | 27 | |
| 20260903150003 | 66 | 203 | 2.6 | 6.1 | 0.00 | 0.00 | 0.00 | 27 | |
| 20260903145403 | 66 | 197 | 3.5 | 8.7 | 0.00 | 0.00 | 0.00 | 28 | |
| 20260903144713 | 65 | 184 | 2.6 | 5.2 | 0.00 | 0.00 | 0.00 | 26 | |
| 20260903143603 | 63 | 169 | 1.7 | 4.3 | 0.00 | 0.00 | 0.00 | 28 | |
| 20260903142703 | 61 | 195 | 1.7 | 6.1 | 0.00 | 0.00 | 0.00 | 28 | |
| 20260903141803 | 58 | 248 | 0.9 | 3.5 | 0.00 | 0.00 | 0.00 | 32 | |
| 20260903141113 | 57 | 254 | 1.7 | 3.5 | 0.00 | 0.00 | 0.00 | 33 | |
| 20260903140003 | 57 | 198 | 1.7 | 4.3 | 0.00 | 0.00 | 0.00 | 36 | |
| 20260903135403 | 56 | 151 | 2.6 | 5.2 | 0.00 | 0.00 | 0.00 | 34 | |
| 20260903134503 | 52 | 191 | 0.9 | 5.2 | 0.00 | 0.00 | 0.00 | 34 | |
| 20260903133603 | 51 | 220 | 0.0 | 1.7 | 0.00 | 0.00 | 0.00 | 38 | |
| 20260903132703 | 51 | 220 | 0.0 | 2.6 | 0.00 | 0.00 | 0.00 | 40 | |
| 20260903132013 | 50 | 220 | 0.9 | 2.6 | 0.00 | 0.00 | 0.00 | 40 | |
| 20260903130904 | 49 | 220 | 0.0 | 1.7 | 0.00 | 0.00 | 0.00 | 41 | |
| 20260903130003 | 49 | 220 | 0.9 | 2.6 | 0.00 | 0.00 | 0.00 | 42 | |
| 20260903125403 | 49 | 220 | 0.9 | 2.6 | 0.00 | 0.00 | 0.00 | 41 | |
| 20260903124503 | 49 | 211 | 0.9 | 3.5 | 0.00 | 0.00 | 0.00 | 42 | |
| 20260903123814 | 49 | 0 | 0.0 | 0.0 | 0.00 | 0.00 | 0.00 | 43 | |
| 20260903122703 | 48 | 163 | 0.0 | 2.6 | 0.00 | 0.00 | 0.00 | 43 | |
| 20260903121803 | 48 | 0 | 0.0 | 0.0 | 0.00 | 0.00 | 0.00 | 44 | |
| 20260903120903 | 48 | 0 | 0.0 | 0.0 | 0.00 | 0.00 | 0.00 | 42 | |
| 20260903120003 | 49 | 163 | 0.0 | 0.9 | 0.00 | 0.00 | 0.00 | 41 | |
| 20260903115403 | 50 | 163 | 0.0 | 0.9 | 0.00 | 0.00 | 0.00 | 40 | |
| 20260903114503 | 51 | 163 | 0.0 | 1.7 | 0.00 | 0.00 | 0.00 | 39 | |
| 20260903113814 | 52 | 163 | 0.0 | 0.9 | 0.00 | 0.00 | 0.00 | 37 | |
| 20260903112913 | 53 | 0 | 0.0 | 0.0 | 0.00 | 0.00 | 0.00 | 36 | |
| 20260903111803 | 56 | 163 | 0.9 | 2.6 | 0.00 | 0.00 | 0.00 | 32 | |
| 20260903110903 | 58 | 163 | 0.9 | 2.6 | 0.00 | 0.00 | 0.00 | 31 | |
| 20260903110003 | 59 | 176 | 1.7 | 5.2 | 0.00 | 0.00 | 0.00 | 28 | |
| 20260903105403 | 59 | 177 | 1.7 | 7.8 | 0.00 | 0.00 | 0.00 | 28 | |
| 20260903104714 | 59 | 174 | 1.7 | 7.8 | 0.00 | 0.00 | 0.00 | 27 | |
| 20260903103813 | 59 | 181 | 1.7 | 4.3 | 0.00 | 0.00 | 0.00 | 27 | |
| 20260903102703 | 60 | 180 | 1.7 | 6.1 | 0.00 | 0.00 | 0.00 | 27 | |
| 20260903101803 | 60 | 162 | 1.7 | 5.2 | 0.00 | 0.00 | 0.00 | 27 | |
| 20260903100903 | 60 | 156 | 2.6 | 6.1 | 0.00 | 0.00 | 0.00 | 27 | |
| 20260903100212 | 60 | 148 | 2.6 | 6.1 | 0.00 | 0.00 | 0.00 | 27 | |
| 20260903095403 | 59 | 139 | 2.6 | 6.1 | 0.00 | 0.00 | 0.00 | 28 | |
| 20260903094503 | 55 | 136 | 1.7 | 4.3 | 0.00 | 0.00 | 0.00 | 32 | |
| 20260903093603 | 52 | 330 | 0.0 | 1.7 | 0.00 | 0.00 | 0.00 | 36 | |
| 20260903092703 | 52 | 0 | 0.0 | 0.0 | 0.00 | 0.00 | 0.00 | 39 | |
| 20260903091803 | 52 | 330 | 0.9 | 3.5 | 0.00 | 0.00 | 0.00 | 40 | |
| 20260903090903 | 52 | 330 | 0.9 | 3.5 | 0.00 | 0.00 | 0.00 | 42 | |
| 20260903090003 | 53 | 330 | 0.9 | 2.6 | 0.00 | 0.00 | 0.00 | 42 | |
| 20260903085614 | 54 | 330 | 0.9 | 2.6 | 0.00 | 0.00 | 0.00 | 41 | |
| 20260903084503 | 54 | 330 | 0.9 | 2.6 | 0.00 | 0.00 | 0.00 | 37 | |
| 20260903083603 | 53 | 330 | 0.9 | 2.6 | 0.00 | 0.00 | 0.00 | 37 | |
| 20260903082703 | 53 | 330 | 0.9 | 1.7 | 0.00 | 0.00 | 0.00 | 38 | |
| 20260903081803 | 53 | 330 | 0.0 | 1.7 | 0.00 | 0.00 | 0.00 | 37 | |
| 20260903081113 | 54 | 0 | 0.0 | 0.0 | 0.00 | 0.00 | 0.00 | 36 | |
| 20260903080004 | 54 | 330 | 0.9 | 1.7 | 0.00 | 0.00 | 0.00 | 35 | |
| 20260903075403 | 55 | 330 | 0.9 | 1.7 | 0.00 | 0.00 | 0.00 | 33 | |
| 20260903074503 | 56 | 330 | 1.7 | 3.5 | 0.00 | 0.00 | 0.00 | 33 | |
| 20260903073603 | 56 | 330 | 2.6 | 6.1 | 0.00 | 0.00 | 0.00 | 34 | |
| 20260903072913 | 56 | 333 | 3.5 | 5.2 | 0.00 | 0.00 | 0.00 | 34 | |
| 20260903071803 | 56 | 332 | 2.6 | 6.1 | 0.00 | 0.00 | 0.00 | 35 | |
| 20260903070903 | 55 | 257 | 1.7 | 6.1 | 0.00 | 0.00 | 0.00 | 33 | |
| 20260903070004 | 56 | 217 | 1.7 | 3.5 | 0.00 | 0.00 | 0.00 | 35 | |
| 20260903065403 | 57 | 217 | 1.7 | 3.5 | 0.00 | 0.00 | 0.00 | 32 | |
| 20260903064503 | 58 | 217 | 1.7 | 2.6 | 0.00 | 0.00 | 0.00 | 29 | |
| 20260903063603 | 59 | 216 | 0.9 | 3.5 | 0.00 | 0.00 | 0.00 | 27 | |
| 20260903062703 | 59 | 216 | 0.9 | 3.5 | 0.00 | 0.00 | 0.00 | 26 | |
| 20260903061803 | 60 | 213 | 1.7 | 3.5 | 0.00 | 0.00 | 0.00 | 26 | |
| 20260903060903 | 61 | 184 | 2.6 | 6.1 | 0.00 | 0.00 | 0.00 | 26 | |
| 20260903060007 | 61 | 155 | 1.7 | 4.3 | 0.00 | 0.00 | 0.00 | 25 | |
| 20260903055613 | 62 | 168 | 1.7 | 4.3 | 0.00 | 0.00 | 0.00 | 25 | |
| 20260903054714 | 61 | 183 | 2.6 | 5.2 | 0.00 | 0.00 | 0.00 | 25 | |
| 20260903053603 | 62 | 233 | 0.9 | 3.5 | 0.00 | 0.00 | 0.00 | 24 | |
| 20260903052703 | 64 | 215 | 0.9 | 4.3 | 0.00 | 0.00 | 0.00 | 23 | |
| 20260903052014 | 65 | 179 | 1.7 | 4.3 | 0.00 | 0.00 | 0.00 | 24 | |
| 20260903050903 | 65 | 152 | 2.6 | 6.1 | 0.00 | 0.00 | 0.00 | 21 | |
| 20260903050003 | 64 | 142 | 2.6 | 5.2 | 0.00 | 0.00 | 0.00 | 22 | |
| 20260903045403 | 64 | 148 | 1.7 | 4.3 | 0.00 | 0.00 | 0.00 | 23 | |
| 20260903044714 | 64 | 149 | 1.7 | 3.5 | 0.00 | 0.00 | 0.00 | 23 | |
| 20260903043603 | 63 | 149 | 1.7 | 4.3 | 0.00 | 0.00 | 0.00 | 23 | |
| 20260903042703 | 63 | 185 | 0.9 | 3.5 | 0.00 | 0.00 | 0.00 | 23 | |
| 20260903041803 | 63 | 188 | 0.9 | 2.6 | 0.00 | 0.00 | 0.00 | 23 | |
| 20260903040903 | 63 | 190 | 1.7 | 4.3 | 0.00 | 0.00 | 0.00 | 23 | |
| 20260903040212 | 64 | 192 | 1.7 | 3.5 | 0.00 | 0.00 | 0.00 | 24 | |
| 20260903035614 | 64 | 194 | 2.6 | 4.3 | 0.00 | 0.00 | 0.00 | 23 | |
| 20260903034503 | 65 | 196 | 2.6 | 5.2 | 0.00 | 0.00 | 0.00 | 22 | |
| 20260903033603 | 65 | 187 | 2.6 | 5.2 | 0.00 | 0.00 | 0.00 | 22 | |
| 20260903032703 | 65 | 184 | 2.6 | 4.3 | 0.00 | 0.00 | 0.00 | 23 | |
| 20260903032013 | 65 | 181 | 2.6 | 5.2 | 0.00 | 0.00 | 0.00 | 23 | |
| 20260903030903 | 66 | 176 | 2.6 | 5.2 | 0.00 | 0.00 | 0.00 | 22 | |
| 20260903030004 | 67 | 194 | 3.5 | 8.7 | 0.00 | 0.00 | 0.00 | 22 | |
| 20260903025403 | 68 | 189 | 4.3 | 9.6 | 0.00 | 0.00 | 0.00 | 21 | |
| 20260903024503 | 68 | 176 | 4.3 | 9.6 | 0.00 | 0.00 | 0.00 | 21 | |
| 20260903023603 | 68 | 182 | 3.5 | 5.2 | 0.00 | 0.00 | 0.00 | 21 | |
| 20260903022703 | 69 | 177 | 2.6 | 6.1 | 0.00 | 0.00 | 0.00 | 21 | |
| 20260903022013 | 69 | 182 | 2.6 | 6.1 | 0.00 | 0.00 | 0.00 | 20 | |
| 20260903020903 | 70 | 185 | 3.5 | 9.6 | 0.00 | 0.00 | 0.00 | 20 | |
| 20260903020003 | 72 | 188 | 4.3 | 9.6 | 0.00 | 0.00 | 0.00 | 19 | |
| 20260903015613 | 72 | 186 | 4.3 | 10.4 | 0.00 | 0.00 | 0.00 | 19 | |
| 20260903014503 | 73 | 188 | 6.1 | 17.4 | 0.00 | 0.00 | 0.00 | 18 | |
| 20260903013814 | 74 | 190 | 6.1 | 13.0 | 0.00 | 0.00 | 0.00 | 18 | |
| 20260903012704 | 75 | 183 | 7.8 | 14.8 | 0.00 | 0.00 | 0.00 | 17 | |
| 20260903011803 | 75 | 190 | 7.8 | 16.5 | 0.00 | 0.00 | 0.00 | 17 | |
| 20260903010903 | 76 | 191 | 7.8 | 16.5 | 0.00 | 0.00 | 0.00 | 17 | |
| 20260903010213 | 76 | 188 | 9.6 | 24.3 | 0.00 | 0.00 | 0.00 | 16 | |
| 20260903005403 | 77 | 189 | 7.8 | 19.1 | 0.00 | 0.00 | 0.00 | 17 | |
| 20260903004503 | 77 | 191 | 7.0 | 17.4 | 0.00 | 0.00 | 0.00 | 17 | |
| 20260903003603 | 78 | 180 | 8.7 | 19.1 | 0.00 | 0.00 | 0.00 | 17 | |
| 20260903002703 | 78 | 184 | 8.7 | 19.1 | 0.00 | 0.00 | 0.00 | 17 | |
| 20260903001803 | 78 | 185 | 11.3 | 21.7 | 0.00 | 0.00 | 0.00 | 17 | |
| 20260903000903 | 78 | 190 | 8.7 | 20.9 | 0.00 | 0.00 | 0.00 | 17 | |
| 20260903000003 | 79 | 186 | 9.6 | 20.9 | 0.00 | 0.00 | 0.00 | 18 | |
| 20260902235403 | 78 | 185 | 10.4 | 18.2 | 0.00 | 0.00 | 0.00 | 19 | |
| 20260902234503 | 79 | 190 | 10.4 | 20.9 | 0.00 | 0.00 | 0.00 | 18 | |
| 20260902233603 | 79 | 184 | 10.4 | 22.6 | 0.00 | 0.00 | 0.00 | 18 | |
| 20260902232703 | 79 | 186 | 10.4 | 20.9 | 0.00 | 0.00 | 0.00 | 19 | |
| 20260902231803 | 79 | 184 | 11.3 | 22.6 | 0.00 | 0.00 | 0.00 | 18 | |
| 20260902230903 | 80 | 185 | 11.3 | 26.1 | 0.00 | 0.00 | 0.00 | 18 | |
| 20260902230003 | 80 | 192 | 10.4 | 26.1 | 0.00 | 0.00 | 0.00 | 18 | |
| 20260902225403 | 80 | 198 | 9.6 | 18.2 | 0.00 | 0.00 | 0.00 | 18 | |
| 20260902224713 | 80 | 187 | 10.4 | 21.7 | 0.00 | 0.00 | 0.00 | 20 | |
| 20260902223603 | 80 | 190 | 12.2 | 23.5 | 0.00 | 0.00 | 0.00 | 18 | |
| 20260902222703 | 79 | 192 | 12.2 | 22.6 | 0.00 | 0.00 | 0.00 | 21 | |
| 20260902221803 | 79 | 197 | 11.3 | 22.6 | 0.00 | 0.00 | 0.00 | 22 | |
| 20260902221113 | 79 | 204 | 11.3 | 21.7 | 0.00 | 0.00 | 0.00 | 21 | |
| 20260902220003 | 80 | 185 | 11.3 | 26.1 | 0.00 | 0.00 | 0.00 | 21 | |
| 20260902215403 | 80 | 188 | 9.6 | 19.1 | 0.00 | 0.00 | 0.00 | 21 | |
| 20260902214503 | 80 | 184 | 10.4 | 21.7 | 0.00 | 0.00 | 0.00 | 21 | |
| 20260902213603 | 79 | 182 | 13.0 | 24.3 | 0.00 | 0.00 | 0.00 | 22 | |
| 20260902212703 | 79 | 193 | 12.2 | 25.2 | 0.00 | 0.00 | 0.00 | 21 |